sat.trackr.live / text

‹ back to catalog

STARLINK-35552

NORAD 66058 · 2025-235A

PAYLOAD ACTIVE UNKNOWN

§ Identity

Operator
Country
US
Launch date
2025-10-19
Launch site
AFETR
Launch vehicle
Mass (kg)
RCS (m²)

Purposes: comms

External: N2YO · Heavens-Above · Gunter

§ Orbital elements

Epoch: 2026-05-25T00:22:36.156000Z

Period
93.85 min
Inclination
53.1587°
Eccentricity
0.0001789
Mean motion
15.34403489 rev/d
Perigee alt
461.5 km
Apogee alt
463.9 km
Semi-major
6,840.8 km
B*
7.6341e-4
RAAN
247.4162°
Arg perigee
89.6390°
Mean anomaly
270.4818°
Rev number
3,465

§ Raw data

STARLINK-355521 66058U 25235A   26145.01569625  .00025508  00000+0  76341-3 0  99972 66058  53.1587 247.4162 0001789  89.6390 270.4818 15.34403489 34651

JSON: /api/v1/satellites/66058 · /tle

For live sub-satellite position, see the globe view (requires WebGL).

§ Visibility from observer

Set your observer location to see the next 7 days of passes ≥ 10°. The values pass through the URL so the page stays shareable.

No JS? Fill the form by hand. The geolocation button needs JavaScript.